This is the latest recevied weather packets stored in our database for station/object 4S6DRJ-13. If no packets are shown the sender has not sent any weather packets the latest 10 day(s).
| Time | Temp. | Humidity | Pressure | Rain* | Wind** | Luminosity | Snow |
|---|---|---|---|---|---|---|---|
| 1787998528 | 30.56° C | 75% | 1007.9 hPa | 0 mm | 3.58 m/s, 359° | 333 W/m² | - |
| 1787998467 | 30.56° C | 75% | 1007.8 hPa | 0 mm | 1.79 m/s, 243° | 340 W/m² | - |
| 1787998406 | 30.56° C | 74% | 1008 hPa | 0 mm | 0.89 m/s, 11° | 527 W/m² | - |
| 1787998346 | 31.11° C | 74% | 1007.8 hPa | 0 mm | 2.24 m/s, 20° | 254 W/m² | - |
| 1787998284 | 31.11° C | 74% | 1007.8 hPa | 0 mm | 1.79 m/s, 231° | 241 W/m² | - |
| 1787998223 | 31.11° C | 73% | 1007.8 hPa | 0 mm | 2.24 m/s, 3° | 296 W/m² | - |
| 1787998162 | 31.11° C | 73% | 1007.9 hPa | 0 mm | 2.24 m/s, 297° | 395 W/m² | - |
| 1787998101 | 31.11° C | 73% | 1008 hPa | 0 mm | 1.79 m/s, 294° | 343 W/m² | - |
| 1787998040 | 31.11° C | 73% | 1008 hPa | 0 mm | 1.79 m/s, 181° | 441 W/m² | - |
| 1787997979 | 31.11° C | 73% | 1007.9 hPa | 0 mm | 1.34 m/s, 341° | 564 W/m² | - |
| 1787997918 | 31.11° C | 73% | 1008 hPa | 0 mm | 0.89 m/s, 335° | 564 W/m² | - |
| 1787997857 | 31.11° C | 74% | 1008.1 hPa | 0 mm | 0.89 m/s, 276° | 578 W/m² | - |
| 1787997796 | 31.11° C | 73% | 1007.8 hPa | 0 mm | 0.89 m/s, 281° | 371 W/m² | - |
| 1787997735 | 31.11° C | 73% | 1008 hPa | 0 mm | 1.34 m/s, 166° | 399 W/m² | - |
| 1787997674 | 31.11° C | 73% | 1007.9 hPa | 0 mm | 0.89 m/s, 332° | 400 W/m² | - |
| 1787997614 | 31.11° C | 73% | 1007.8 hPa | 0 mm | 0.89 m/s, 277° | 611 W/m² | - |
| 1787997552 | 31.11° C | 73% | 1007.8 hPa | 0 mm | 0.89 m/s, 161° | 655 W/m² | - |
| 1787997491 | 30.56° C | 74% | 1007.8 hPa | 0 mm | 0.89 m/s, 234° | 382 W/m² | - |
| 1787997430 | 30.56° C | 73% | 1008 hPa | 0 mm | 1.34 m/s, 272° | 381 W/m² | - |
| 1787997369 | 30.56° C | 73% | 1008 hPa | 0 mm | 4.02 m/s, 288° | 650 W/m² | - |
| 1787997309 | 30.56° C | 74% | 1008 hPa | 0 mm | 1.79 m/s, 223° | 662 W/m² | - |
| 1787997247 | 30.56° C | 74% | 1008.1 hPa | 0 mm | 2.24 m/s, 1° | 685 W/m² | - |
| 1787997186 | 30.56° C | 74% | 1008 hPa | 0 mm | 0.45 m/s, 345° | 686 W/m² | - |
| 1787997125 | 30.56° C | 74% | 1007.9 hPa | 0 mm | 2.24 m/s, 347° | 516 W/m² | - |
| 1787997064 | 30.56° C | 74% | 1008 hPa | 0 mm | 3.58 m/s, 315° | 669 W/m² | - |
* Rain latest hour (hover to see other rain measurements)
** Current wind speed in m/s (hover to see current wind gust speed)